[[{"header":{"parameterUnit":"m.s-1","parameterCategory":1,"la1":30.2991,"la2":30.254,"lo1":-89.0895,"lo2":-89.0444,"dy":0.0017,"dx":0.0017,"nx":28,"ny":28,"refTime":"2024-04-25T03:00:00:Z","depth":0,"parameterNumber":2,"parameterNumberName":"U-component_of_WINDS"},"data":[0,0,0,0,0,0,0,0,0,0,0,0,0,0,0,0,0,0,0,0,0,0,0,0,0,0,0,0,0,0,0,0,0,0,0,0,0,0,0,0,0,0,0,0,0,0,0,0,0,0,0,0,0,0,0,0,0,0,1.9884,1.9885,0,1.9978,1.9979,1.998,1.9977,1.9976,1.9975,1.9974,2.0069,2.0073,2.0077,0,0,0,0,0,0,0,0,0,0,0,0,0,1.97,1.9704,1.9884,1.9885,1.9886,1.9978,1.9979,1.998,1.9978,1.9976,1.9975,1.9973,2.0068,2.0072,2.0077,0,0,0,0,0,0,0,0,0,0,0,0,0,1.9786,1.9705,1.9884,1.9896,1.9898,1.9977,1.9979,1.9981,1.9978,1.9976,1.9974,1.9972,2.0067,2.0072,2.0078,2.0151,0,0,2.0095,2.0097,0,0,0,0,0,0,0,0,1.9781,1.9792,1.9893,1.9895,1.9898,1.9964,1.9949,2.0038,1.9978,1.9948,1.9974,1.9971,2.0036,2.0044,2.0066,2.0155,2.0159,2.0095,2.0099,2.0101,2.0103,0,0,0,0,0,0,0,1.9775,1.9788,1.9921,1.9894,1.9897,1.9896,1.9906,1.9966,2.0001,1.995,1.995,1.9961,2.0037,2.006,2.0068,2.0161,2.0095,2.01,2.0103,2.0106,2.0313,2.0315,0,0,0,0,0,0,1.9767,1.9783,1.9918,1.9924,1.9833,1.9901,1.9912,1.9945,2.0001,2.0007,1.9963,1.9961,2.0052,2.0061,2.0071,2.0158,2.0101,2.0106,2.0109,2.031,2.0313,2.0315,0,0,0,0,0,0,1.9763,1.9779,1.9914,1.9854,1.9871,1.9906,1.9943,1.9948,1.9971,2.001,2.0016,1.9981,2.005,2.0063,2.013,2.0162,2.0109,2.0114,2.0308,2.0311,2.0314,2.0335,0,0,0,0,0,0,1.9757,1.9777,1.9806,1.9854,1.9874,1.9973,1.9945,1.9951,1.9981,1.9979,2.0029,2.0035,2.005,2.0122,2.0136,2.0169,2.0118,2.0305,2.0309,2.0313,2.0332,2.0338,2.0344,0,0,0,0,0,1.9751,1.9809,1.9807,1.9824,1.9911,1.9974,1.9986,2.0002,1.9983,2.0012,2.0037,2.0033,2.0157,2.0129,2.0145,2.0179,2.0303,2.0308,2.0313,2.0329,2.0337,2.0344,0,0,0,0,0,0,1.9763,1.9815,1.9815,1.989,1.9928,1.9974,2.001,2.0011,2.0055,2.0051,2.0069,2.008,2.0147,2.017,2.0139,2.0252,2.0227,2.0236,2.0234,2.0242,2.0249,2.0241,2.0123,0,0,0,0,0,1.9774,1.9822,1.9865,1.9927,1.9946,1.9975,2.0003,2.0013,2.0053,2.0068,2.0098,2.0137,2.0184,2.0215,2.0261,2.0335,2.0345,2.0367,2.0373,2.0378,2.0384,2.0423,2.0433,2.0331,2.0331,2.0331,0,0,1.9798,1.9833,1.9862,1.993,1.9961,2.0009,1.9989,2.0041,2.0076,2.0076,2.0141,2.0164,2.0209,2.0279,2.0312,2.03,2.0415,2.0384,2.0388,2.0392,2.0429,2.0439,2.0447,2.0334,2.0334,2.0333,0,0,1.9866,1.9898,1.9952,1.9983,2.0029,2.0047,2.006,2.0107,2.0122,2.0187,2.0188,2.023,2.0312,2.0342,2.0368,2.0446,2.0444,2.0461,2.0493,2.0531,2.0539,2.0546,2.0572,2.0581,2.0467,2.0468,2.0468,0,1.989,1.9963,1.998,2.0031,2.0061,2.0063,2.0117,2.0146,2.0205,2.0224,2.0211,2.0312,2.0342,2.0419,2.0438,2.046,2.0474,2.0455,2.0537,2.0544,2.0551,2.0575,2.0585,2.0469,2.0469,2.0469,2.0469,0,1.9988,2.0039,2.0077,2.0133,2.0166,2.0219,2.0243,2.0275,2.0281,2.0301,2.0366,2.0402,2.0454,2.0474,2.0481,2.0551,2.0542,2.0533,2.0508,2.0562,2.0585,2.0595,2.0471,2.0471,2.047,2.047,0,0,2.0066,2.013,2.0143,2.0168,2.0218,2.0257,2.031,2.036,2.0386,2.0427,2.047,2.0538,2.0529,2.0559,2.0569,2.0603,2.0659,2.0589,2.059,2.0599,2.0736,2.0741,2.0752,2.0658,2.066,2.0662,2.0731,0,2.0137,2.0229,2.0246,2.0326,2.0372,2.0374,2.0419,2.0455,2.0475,2.0515,2.0537,2.0584,2.057,2.0588,2.0621,2.0645,2.0686,2.0641,2.0697,2.0699,2.0684,2.0764,2.077,2.0834,2.0741,2.0742,2.0744,0,2.0232,2.0274,2.0359,2.0402,2.0421,2.0462,2.0508,2.0548,2.0588,2.06,2.0632,2.0638,2.0691,2.0666,2.0738,2.0706,2.0731,2.0746,2.0749,2.0753,2.0723,2.0768,2.0855,2.0864,2.0759,2.0757,2.0756,0,2.0277,2.0355,2.0415,2.0436,2.0488,2.0516,2.0539,2.0577,2.0606,2.0647,2.0665,2.0712,2.0737,2.0773,2.0791,2.0771,2.0862,2.0838,2.0871,2.0871,2.0889,2.0887,2.0978,2.0908,2.0908,2.0908,2.0908,0,2.0353,2.0404,2.0435,2.0472,2.0529,2.0547,2.0603,2.0625,2.0659,2.0699,2.0705,2.0743,2.0765,2.0806,2.0821,2.0877,2.0889,2.0899,2.0902,2.0897,2.0896,2.0912,2.0907,2.091,2.091,2.0909,2.0909,0,2.0412,2.0435,2.0501,2.0544,2.0556,2.0596,2.0633,2.0668,2.0688,2.0739,2.0752,2.0782,2.083,2.0852,2.0912,2.0922,2.0985,2.0986,2.0972,2.0972,2.1004,2.0999,2.1107,2.1121,2.1043,2.1044,2.1045,0,2.0458,2.0497,2.0545,2.0572,2.0596,2.064,2.0669,2.0689,2.0718,2.0766,2.0795,2.0843,2.0883,2.0959,2.0986,2.1032,2.1032,2.1067,2.1039,2.1032,2.103,2.1026,2.1029,2.1071,2.1072,2.1073,2.1073,0,2.0536,2.0546,2.0588,2.0633,2.0668,2.0705,2.0741,2.0763,2.0788,2.0821,2.087,2.09,2.0961,2.1008,2.1055,2.1078,2.1079,2.1082,2.1091,2.1086,2.1075,2.1079,2.0983,2.1079,2.1078,2.1078,2.1077,2.1077,2.0589,2.0623,2.0661,2.0707,2.0736,2.077,2.0804,2.0828,2.0869,2.0919,2.0928,2.098,2.1017,2.108,2.1105,2.1145,2.1137,2.1151,2.1155,2.1157,2.1158,2.107,2.1154,2.1154,2.1154,2.1154,2.1153,0,2.0665,2.069,2.0732,2.0782,2.0818,2.0817,2.0856,2.0886,2.0931,2.0966,2.1005,2.106,2.1106,2.1136,2.1182,2.1208,2.1209,2.1219,2.1216,2.1221,2.1164,2.115,2.1217,2.1217,2.1217,2.1217,2.1217,2.1217,2.0709,2.0766,2.078,2.0851,2.0875,2.0925,2.0948,2.0978,2.1006,2.1067,2.1105,2.1124,2.1157,2.1205,2.1246,2.1254,2.127,2.1279,2.1286,2.1232,2.1225,2.1219,2.1206,2.1283,2.1283,2.134,2.134,2.1341]},{"header":{"parameterUnit":"m.s-1","parameterCategory":1,"la1":30.2991,"la2":30.254,"lo1":-89.0895,"lo2":-89.0444,"dy":0.0017,"dx":0.0017,"nx":28,"ny":28,"refTime":"2024-04-25T03:00:00:Z","depth":0,"parameterNumber":3,"parameterNumberName":"V-component_of_WINDS"},"data":[0,0,0,0,0,0,0,0,0,0,0,0,0,0,0,0,0,0,0,0,0,0,0,0,0,0,0,0,0,0,0,0,0,0,0,0,0,0,0,0,0,0,0,0,0,0,0,0,0,0,0,0,0,0,0,0,0,0,3.0142,3.0142,0,3.0143,3.0143,3.0143,3.0076,3.0074,3.0072,3.0071,3.0071,3.0073,3.0075,0,0,0,0,0,0,0,0,0,0,0,0,0,3.0079,3.0081,3.0142,3.0142,3.0142,3.0143,3.0143,3.0143,3.0076,3.0074,3.0072,3.007,3.0071,3.0073,3.0075,0,0,0,0,0,0,0,0,0,0,0,0,0,3.0096,3.0081,3.0142,3.0109,3.0106,3.0143,3.0143,3.0143,3.0077,3.0074,3.0071,3.0069,3.007,3.0073,3.0075,3.0145,0,0,3.0083,3.0084,0,0,0,0,0,0,0,0,3.0095,3.0099,3.0113,3.0111,3.0108,3.0107,3.0121,3.0144,3.0077,3.0088,3.0071,3.0067,3.0085,3.0086,3.0093,3.0145,3.0145,3.0083,3.0085,3.0086,3.0086,0,0,0,0,0,0,0,3.0094,3.0098,3.0142,3.0114,3.011,3.0093,3.0092,3.0125,3.0101,3.0087,3.0082,3.0083,3.0083,3.009,3.0092,3.0145,3.0083,3.0085,3.0087,3.0088,3.0252,3.0254,0,0,0,0,0,0,3.0098,3.0098,3.0142,3.0142,3.0095,3.0096,3.0096,3.011,3.0101,3.0097,3.0085,3.008,3.0087,3.0089,3.0092,3.0171,3.0086,3.0088,3.009,3.0249,3.0252,3.0255,0,0,0,0,0,0,3.0097,3.0103,3.0142,3.0119,3.0122,3.01,3.0117,3.0111,3.0118,3.01,3.0095,3.0097,3.0085,3.0088,3.0132,3.017,3.0089,3.0092,3.0246,3.025,3.0254,3.0331,0,0,0,0,0,0,3.0095,3.0103,3.0129,3.012,3.0124,3.0183,3.0119,3.0113,3.0123,3.0116,3.011,3.0106,3.0083,3.0128,3.0134,3.0172,3.0094,3.0242,3.0248,3.0253,3.0325,3.0338,3.0348,0,0,0,0,0,3.0093,3.0151,3.0131,3.0137,3.0157,3.0185,3.0187,3.016,3.0126,3.0152,3.014,3.0106,3.0165,3.0133,3.0139,3.0179,3.0239,3.0246,3.0252,3.032,3.0335,3.0348,0,0,0,0,0,0,3.0166,3.0149,3.0127,3.0183,3.0186,3.0174,3.0206,3.0178,3.019,3.0183,3.0149,3.0148,3.0196,3.0192,3.0156,3.0245,3.0196,3.0204,3.0246,3.026,3.0271,3.0271,3.0096,0,0,0,0,0,3.0188,3.0213,3.0197,3.0249,3.0251,3.0229,3.024,3.0219,3.022,3.0221,3.0212,3.0215,3.0233,3.0246,3.0263,3.0324,3.0321,3.0354,3.0366,3.0376,3.0383,3.0413,3.0427,3.0276,3.0276,3.0276,0,0,3.0235,3.0229,3.0247,3.0263,3.0263,3.0288,3.023,3.026,3.0278,3.0225,3.0265,3.0259,3.0259,3.0312,3.0334,3.0309,3.0424,3.0384,3.0392,3.0393,3.0421,3.0436,3.0448,3.0281,3.028,3.0279,0,0,3.0333,3.0332,3.0374,3.0374,3.0374,3.0359,3.0369,3.0361,3.0354,3.0394,3.0354,3.0376,3.0409,3.0411,3.0416,3.0513,3.0482,3.052,3.058,3.061,3.0622,3.0633,3.0666,3.0679,3.0527,3.0527,3.0527,0,3.0391,3.0428,3.0399,3.0431,3.0438,3.0392,3.0433,3.0435,3.0441,3.0447,3.0419,3.046,3.0457,3.0508,3.0532,3.0538,3.0548,3.052,3.0623,3.0633,3.0642,3.0674,3.0687,3.0532,3.0531,3.0531,3.053,0,3.0499,3.0525,3.0559,3.0565,3.0577,3.0614,3.0589,3.0604,3.0582,3.0569,3.0609,3.0604,3.0618,3.0629,3.0607,3.0677,3.0661,3.0629,3.0579,3.0662,3.0691,3.0703,3.0538,3.0537,3.0535,3.0534,0,0,3.0643,3.0631,3.0644,3.0645,3.0642,3.0661,3.0695,3.0709,3.0722,3.0727,3.0754,3.0784,3.0753,3.0759,3.0738,3.0765,3.0841,3.0729,3.0728,3.0749,3.0915,3.0939,3.0953,3.082,3.0822,3.0824,3.0915,0,3.0737,3.0794,3.0768,3.0828,3.0851,3.0807,3.0836,3.0837,3.0826,3.0844,3.0831,3.0852,3.0811,3.0814,3.0839,3.0826,3.0873,3.082,3.0844,3.0845,3.0844,3.0969,3.0994,3.1079,3.0926,3.0928,3.0929,0,3.0854,3.0863,3.0926,3.0917,3.0925,3.0952,3.0962,3.098,3.0979,3.0969,3.0975,3.0947,3.0979,3.0931,3.0974,3.0938,3.0947,3.0942,3.0945,3.0945,3.0892,3.0971,3.1106,3.1119,3.0947,3.0946,3.0944,0,3.0951,3.0979,3.102,3.1023,3.1013,3.1033,3.103,3.1027,3.1036,3.1045,3.105,3.1063,3.1069,3.1079,3.1055,3.1022,3.1101,3.1051,3.1093,3.1094,3.1111,3.111,3.1248,3.1119,3.1118,3.1118,3.1118,0,3.1058,3.1097,3.1063,3.1088,3.1131,3.11,3.1143,3.1135,3.1132,3.1154,3.1117,3.1139,3.1106,3.1124,3.1106,3.1144,3.1147,3.1139,3.1134,3.1142,3.1143,3.1146,3.1139,3.1121,3.1121,3.112,3.1119,0,3.1173,3.1151,3.1192,3.118,3.1178,3.121,3.1198,3.1221,3.1207,3.1235,3.124,3.1218,3.1237,3.1215,3.1232,3.122,3.1271,3.1257,3.1271,3.1266,3.1309,3.1305,3.1453,3.1471,3.1332,3.1333,3.1334,0,3.1242,3.1271,3.1261,3.1273,3.1272,3.1292,3.1301,3.1272,3.1283,3.1284,3.1306,3.1322,3.1333,3.1366,3.1352,3.1365,3.135,3.1401,3.1352,3.1359,3.135,3.1348,3.135,3.1411,3.1413,3.1414,3.1415,0,3.1366,3.1354,3.1368,3.1379,3.1391,3.1398,3.1402,3.1414,3.1384,3.1398,3.1417,3.1426,3.1443,3.146,3.1468,3.1465,3.1435,3.1431,3.1441,3.145,3.1456,3.1452,3.1297,3.1428,3.1426,3.1426,3.1425,3.1424,3.1459,3.1482,3.1479,3.1496,3.1496,3.1501,3.152,3.1509,3.1524,3.1536,3.1518,3.1541,3.1539,3.1548,3.1548,3.1565,3.1543,3.1559,3.1562,3.1566,3.1572,3.1454,3.1567,3.1567,3.1566,3.1566,3.1566,0,3.158,3.1576,3.1592,3.1598,3.1612,3.1582,3.1585,3.1598,3.162,3.162,3.1631,3.1653,3.1668,3.1655,3.1668,3.1684,3.1671,3.1689,3.1687,3.1686,3.1591,3.1581,3.1699,3.1699,3.1699,3.1699,3.1699,3.1699,3.1645,3.1682,3.167,3.1706,3.1701,3.1724,3.1728,3.1732,3.1731,3.1757,3.1769,3.1761,3.1755,3.1767,3.178,3.1775,3.1781,3.1803,3.1794,3.1706,3.1693,3.168,3.167,3.1805,3.1805,3.1887,3.1888,3.1888]}]]